EW7112 Weather Reports


time (UTC)temp
C
wind
direction
speed
KPH
gust
KPH
rain 1hr
cm
rain 24hr
cm
rain mn
cm
humidity
%
barometer
mb
20260503203057 28 205 4.8 14.5 0.00 0.00 0.00 31 995.8
20260503201552 28 191 3.2 16.1 0.00 0.00 0.00 32 996.0
20260503200055 27 326 4.8 14.5 0.00 0.00 0.00 32 996.2
20260503194555 27 149 3.2 14.5 0.00 0.00 0.00 33 996.5
20260503193044 27 167 8.0 19.3 0.00 0.00 0.00 31 996.8
20260503191541 27 285 3.2 12.9 0.00 0.00 0.00 34 997.0
20260503190038 27 160 3.2 11.3 0.00 0.00 0.00 35 997.4
20260503184535 27 259 3.2 17.7 0.00 0.00 0.00 35 997.5
20260503183034 27 257 4.8 12.9 0.00 0.00 0.00 35 997.7
20260503181529 26 84 4.8 12.9 0.00 0.00 0.00 38 998.0
20260503180027 26 192 6.4 12.9 0.00 0.00 0.00 36 998.3
20260503174523 26 243 6.4 17.7 0.00 0.00 0.00 39 998.6
20260503173027 26 262 1.6 17.7 0.00 0.00 0.00 43 998.8
20260503171517 25 210 4.8 16.1 0.00 0.00 0.00 45 999.1
20260503081556 16 230 0.0 4.8 0.00 0.00 0.00 67 998.2
20260503071610 17 245 0.0 4.8 0.00 0.00 0.00 62 998.6
20260503060103 16 179 0.0 0.0 0.00 0.00 0.00 68 998.6
20260503054555 16 179 0.0 0.0 0.00 0.00 0.00 66 998.4
20260503053040 16 179 0.0 0.0 0.00 0.00 0.00 66 998.4
20260503051537 17 179 0.0 0.0 0.00 0.00 0.00 66 998.3
20260503050038 16 229 0.0 3.2 0.00 0.00 0.00 72 998.2
20260503044533 16 216 0.0 0.0 0.00 0.00 0.00 73 998.2
20260503043034 16 216 0.0 0.0 0.00 0.00 0.00 73 998.1
20260503041538 16 216 0.0 0.0 0.00 0.00 0.00 72 998.2
20260503040031 16 216 0.0 0.0 0.00 0.00 0.00 72 998.2
20260503034532 16 216 0.0 0.0 0.00 0.00 0.00 72 998.2
20260503033035 16 216 0.0 0.0 0.00 0.00 0.00 71 998.1
20260503031530 17 216 0.0 0.0 0.00 0.00 0.00 69 998.1
20260503030038 17 216 0.0 0.0 0.00 0.00 0.00 67 997.9
20260503024529 17 216 0.0 0.0 0.00 0.00 0.00 65 997.8
20260503023027 18 216 0.0 0.0 0.00 0.00 0.00 64 997.7
20260503021526 18 216 0.0 0.0 0.00 0.00 0.00 62 997.6
20260503020027 18 216 0.0 0.0 0.00 0.00 0.00 60 997.4
20260503014526 20 216 0.0 0.0 0.00 0.00 0.00 57 997.4
20260503013027 20 216 0.0 0.0 0.00 0.00 0.00 54 997.3
20260503011524 21 216 0.0 0.0 0.00 0.00 0.00 53 997.2
20260503010027 21 216 0.0 0.0 0.00 0.00 0.00 50 997.2
20260503004525 22 216 0.0 0.0 0.00 0.00 0.00 44 997.1
20260503003023 23 216 0.0 3.2 0.00 0.00 0.00 42 997.1
20260503001520 23 283 1.6 6.4 0.00 0.00 0.00 40 997.0
20260503000019 23 328 1.6 6.4 0.00 0.00 0.00 39 997.1
20260502234526 24 225 3.2 8.0 0.00 0.00 0.00 38 997.1
20260502233015 24 263 0.0 8.0 0.00 0.00 0.00 38 997.2
20260502231512 24 212 1.6 8.0 0.00 0.00 0.00 38 997.3
20260502230019 24 306 0.0 6.4 0.00 0.00 0.00 37 997.4
20260502224509 24 325 3.2 9.7 0.00 0.00 0.00 37 997.4
20260502223006 25 182 1.6 6.4 0.00 0.00 0.00 37 997.4
20260502221505 23 273 0.0 4.8 0.00 0.00 0.00 37 997.6
20260502220002 24 240 3.2 9.7 0.00 0.00 0.00 36 997.7
20260502214500 25 178 3.2 9.7 0.00 0.00 0.00 38 997.8
20260502213101 24 327 1.6 8.0 0.00 0.00 0.00 36 997.9
20260502211559 24 243 3.2 11.3 0.00 0.00 0.00 35 998.2
20260502210115 25 326 6.4 17.7 0.00 0.00 0.00 33 998.3
20260502204558 24 168 3.2 11.3 0.00 0.00 0.00 32 998.7